C6007 KMOB-KMOB

Flight info

Callsign C6007
Flight time 0h 0m
Altitude 1500
Route VFR
Aircraft H60/L-V/N

Departure

Time 2026-05-01 14:58
Airport Mobile Regional Airport (KMOB)

Arrival

Time 2026-05-01 14:58
Airport Mobile Regional Airport (KMOB)
Time Latitude Longitude Altitude Speed Heading
2026-05-01 14:27 30.69561 -88.24265 221 ft 0 kts 173°
2026-05-01 14:45 30.69560 -88.24265 225 ft 3 kts 173°
2026-05-01 14:46 30.69528 -88.24273 223 ft 0 kts 179°
2026-05-01 14:47 30.69528 -88.24274 224 ft 2 kts 185°
2026-05-01 14:47 30.69517 -88.24311 264 ft 7 kts 105°
2026-05-01 14:48 30.69513 -88.24327 227 ft 0 kts 98°
2026-05-01 14:49 30.69561 -88.24265 221 ft 0 kts 173°
2026-05-01 14:55 30.69558 -88.24261 231 ft 5 kts 174°
2026-05-01 14:55 30.69413 -88.24198 283 ft 36 kts 178°
2026-05-01 14:55 30.69188 -88.23991 451 ft 54 kts 103°
2026-05-01 14:55 30.69167 -88.23413 733 ft 94 kts 91°
2026-05-01 14:56 30.69114 -88.22532 603 ft 111 kts 92°
2026-05-01 14:56 30.68909 -88.21797 655 ft 82 kts 122°
2026-05-01 14:56 30.68703 -88.21311 689 ft 54 kts 118°
2026-05-01 14:56 30.68560 -88.20999 649 ft 35 kts 122°
2026-05-01 14:57 30.68478 -88.20827 612 ft 16 kts 125°
2026-05-01 14:57 30.68417 -88.20647 652 ft 22 kts 130°
2026-05-01 14:57 30.68314 -88.20419 758 ft 44 kts 126°
2026-05-01 14:58 30.68087 -88.20040 854 ft 76 kts 124°
2026-05-01 14:58 30.67617 -88.19755 774 ft 51 kts 277°
2026-05-01 14:58 30.67439 -88.19891 587 ft 28 kts 347°
2026-05-01 14:58 30.67625 -88.20027 556 ft 33 kts
2026-05-01 14:59 30.67804 -88.20027 378 ft 15 kts
2026-05-01 14:59 30.67865 -88.20038 274 ft 6 kts 18°
2026-05-01 14:59 30.67910 -88.20027 247 ft 5 kts 23°
2026-05-01 14:59 30.67937 -88.20016 223 ft 3 kts 29°
2026-05-01 15:00 30.67978 -88.20001 338 ft 8 kts 38°
2026-05-01 15:00 30.68116 -88.19895 696 ft 45 kts 50°
2026-05-01 15:00 30.68239 -88.19449 692 ft 60 kts 106°
2026-05-01 15:01 30.68015 -88.19123 790 ft 44 kts 179°
2026-05-01 15:01 30.67794 -88.19267 645 ft 37 kts 262°
2026-05-01 15:01 30.67650 -88.19483 491 ft 38 kts 283°
2026-05-01 15:01 30.67638 -88.19823 494 ft 44 kts 334°
2026-05-01 15:02 30.67833 -88.20008 322 ft 30 kts
2026-05-01 15:02 30.67910 -88.20019 237 ft 5 kts
2026-05-01 15:02 30.67940 -88.20013 226 ft 5 kts 28°
2026-05-01 15:02 30.67950 -88.20010 202 ft 1 kts 33°
2026-05-01 15:03 30.67951 -88.20010 200 ft 0 kts 34°
2026-05-01 15:03 30.67980 -88.19990 426 ft 8 kts 41°
2026-05-01 15:03 30.67982 -88.19774 844 ft 55 kts 86°
2026-05-01 15:03 30.67880 -88.19188 999 ft 91 kts 98°
2026-05-01 15:04 30.67920 -88.18407 1010 ft 103 kts 77°
2026-05-01 15:04 30.68059 -88.17569 936 ft 108 kts 73°
2026-05-01 15:04 30.68176 -88.16771 1062 ft 93 kts 76°
2026-05-01 15:04 30.68258 -88.16084 1367 ft 79 kts 79°
2026-05-01 15:05 30.68301 -88.15393 1478 ft 95 kts 84°
2026-05-01 15:05 30.68387 -88.14573 1336 ft 109 kts 79°
2026-05-01 15:05 30.68576 -88.13711 1164 ft 109 kts 72°
2026-05-01 15:05 30.68737 -88.12904 1138 ft 96 kts 74°
2026-05-01 15:06 30.68884 -88.12174 1149 ft 93 kts 71°
2026-05-01 15:06 30.69013 -88.11415 950 ft 98 kts 75°
2026-05-01 15:06 30.69102 -88.10635 784 ft 97 kts 77°
2026-05-01 15:06 30.69195 -88.09893 776 ft 89 kts 76°
2026-05-01 15:07 30.69349 -88.09228 872 ft 82 kts 71°
2026-05-01 15:07 30.69577 -88.08655 872 ft 73 kts 65°
2026-05-01 15:07 30.69747 -88.08183 526 ft 53 kts 99°
2026-05-01 15:07 30.69908 -88.07909 402 ft 39 kts 122°
2026-05-01 15:08 30.70079 -88.07607 428 ft 41 kts 194°
2026-05-01 15:08 30.70075 -88.07376 501 ft 21 kts 212°
2026-05-01 15:08 30.69981 -88.07354 437 ft 19 kts 239°
2026-05-01 15:08 30.69898 -88.07524 228 ft 24 kts 258°
2026-05-01 15:09 30.69864 -88.07643 73 ft 6 kts 275°
2026-05-01 15:09 30.69853 -88.07659 79 ft 5 kts 282°
2026-05-01 15:09 30.69850 -88.07705 87 ft 6 kts 310°
2026-05-01 15:09 30.69847 -88.07747 59 ft 3 kts 356°
2026-05-01 15:10 30.69850 -88.07754 49 ft 1 kts 11°
2026-05-01 15:10 30.69869 -88.07750 27 ft 0 kts 13°
2026-05-01 15:10 30.69872 -88.07751 26 ft 2 kts 12°
2026-05-01 15:11 30.69939 -88.07724 136 ft 16 kts 18°
2026-05-01 15:11 30.69911 -88.07385 370 ft 33 kts 257°
2026-05-01 15:11 30.69811 -88.07500 168 ft 20 kts 286°
2026-05-01 15:12 30.69841 -88.07626 128 ft 16 kts 289°
2026-05-01 15:12 30.69871 -88.07741 29 ft 3 kts 291°
2026-05-01 15:12 30.69873 -88.07760 46 ft 3 kts 292°
2026-05-01 15:13 30.69980 -88.08554 985 ft 87 kts 276°
2026-05-01 15:14 30.70046 -88.10077 1051 ft 94 kts 268°
2026-05-01 15:14 30.69917 -88.10820 1069 ft 94 kts 264°
2026-05-01 15:14 30.69546 -88.12335 1021 ft 103 kts 261°
2026-05-01 15:15 30.69115 -88.13979 818 ft 109 kts 262°
2026-05-01 15:15 30.68814 -88.15667 815 ft 95 kts 267°
2026-05-01 15:16 30.68566 -88.17081 948 ft 85 kts 270°
2026-05-01 15:16 30.68468 -88.18404 1048 ft 82 kts 283°
2026-05-01 15:17 30.68543 -88.19759 982 ft 89 kts 269°
2026-05-01 15:18 30.68063 -88.21819 1016 ft 76 kts 260°
2026-05-01 15:18 30.67924 -88.22362 1032 ft 66 kts 262°
2026-05-01 15:19 30.67768 -88.23440 707 ft 32 kts 263°
2026-05-01 15:19 30.67653 -88.23894 867 ft 31 kts 277°
2026-05-01 15:19 30.67583 -88.24178 910 ft 45 kts 279°
2026-05-01 15:20 30.67663 -88.25025 794 ft 47 kts 291°
2026-05-01 15:20 30.67730 -88.25313 622 ft 28 kts 293°
2026-05-01 15:20 30.67774 -88.25494 455 ft 19 kts 294°
2026-05-01 15:21 30.67810 -88.25589 390 ft 8 kts 300°
2026-05-01 15:21 30.67850 -88.25649 384 ft 13 kts 289°
2026-05-01 15:21 30.67886 -88.25738 325 ft 14 kts 279°
2026-05-01 15:21 30.67893 -88.25785 220 ft 2 kts 279°
2026-05-01 15:22 30.67900 -88.25833 207 ft 0 kts 283°
2026-05-01 15:22 30.67901 -88.25844 208 ft 0 kts 269°
2026-05-01 15:22 30.67901 -88.25851 239 ft 1 kts 272°
2026-05-01 15:23 30.67902 -88.25814 433 ft 9 kts 353°
2026-05-01 15:23 30.67931 -88.25745 473 ft 12 kts 64°
2026-05-01 15:23 30.67965 -88.25648 554 ft 17 kts 68°
2026-05-01 15:23 30.68052 -88.25496 669 ft 29 kts 67°
2026-05-01 15:24 30.68188 -88.25265 643 ft 38 kts 54°
2026-05-01 15:24 30.68360 -88.24996 603 ft 46 kts 52°
2026-05-01 15:24 30.68581 -88.24693 470 ft 54 kts 50°
2026-05-01 15:24 30.68805 -88.24446 414 ft 36 kts 44°
2026-05-01 15:25 30.68964 -88.24339 352 ft 19 kts 28°
2026-05-01 15:25 30.69027 -88.24379 294 ft 7 kts 18°
2026-05-01 15:25 30.68915 -88.24396 389 ft 25 kts 22°
2026-05-01 15:25 30.68876 -88.24392 559 ft 17 kts 17°
2026-05-01 15:26 30.69066 -88.24388 442 ft 32 kts 16°
2026-05-01 15:26 30.69282 -88.24352 316 ft 28 kts 18°
2026-05-01 15:26 30.69408 -88.24317 227 ft 9 kts 22°
2026-05-01 15:26 30.69418 -88.24333 220 ft 6 kts 56°
2026-05-01 15:27 30.69417 -88.24336 219 ft 0 kts 57°
2026-05-01 15:27 30.69422 -88.24323 219 ft 4 kts 61°
2026-05-01 15:27 30.69457 -88.24300 220 ft 6 kts 358°
2026-05-01 15:28 30.69465 -88.24301 220 ft 0 kts 358°